Flag for U.S.A. Weather past 2 weeks in Carson City, Nevada, U.S.A.

Now
63 °F

Passing clouds.


Feels Like: 63 °F
Forecast: 50 / 83 °F
Wind: No wind

Location: Reno Tahoe International Airport

Current Time: May 29, 2015 at 2:32:45 AM

Latest Report: May 29, 2015 at 1:55 AM


Visibility: 10 mi

Pressure: 29.94 "Hg

Humidity: 47%

Dew point: 42 °F

Location of Carson CityLocation

Historic Weather in Carson City — Graph

°F

Carson City temperature yesterday

Maximum temperature yesterday: 83 °F (at 3:55 PM)
Minimum temperature yesterday: 53 °F (at 5:55 AM)
Average temperature yesterday: 70 °F

Past Weeks' High & Low Weather Summary

 TemperatureHumidityPressure
High83 °F (May 28, 3:55 PM)96% (May 26, 12:55 AM)30.02 "Hg (May 26, 12:55 AM)
Low41 °F (May 15, 3:55 AM)14% (May 28, 2:55 PM)29.65 "Hg (May 14, 3:55 PM)
Average57 °F58%29.89 "Hg
* Reported May 14 12:55 AM — May 29 12:55 AM, Carson City, Weather by CustomWeather, © 2015

Note: Actual official high and low records may vary slightly from our data, if they occured in-between our weather recording intervals... More about our weather records

Advertising

Carson City weather history for previous 24 hours

 ConditionsComfort  
Time TempWeatherWind HumidityBarometerVisibility
12:55 AM
Fri, May 29
66 °FPassing clouds.3 mph42%29.93 "Hg10 mi
11:55 PM
Thu, May 28
69 °FPassing clouds.6 mph38%29.93 "Hg10 mi
10:55 PM70 °FPassing clouds.3 mph37%29.93 "Hg10 mi
9:55 PM73 °FPassing clouds.8 mph33%29.93 "Hg10 mi
8:55 PM76 °FScattered clouds.13 mph22%29.90 "Hg10 mi
7:55 PM79 °FPartly sunny.10 mph17%29.88 "Hg10 mi
6:55 PM82 °FBroken clouds.6 mph15%29.87 "Hg10 mi
5:55 PM83 °FBroken clouds.5 mph14%29.87 "Hg10 mi
4:55 PM83 °FBroken clouds.6 mph14%29.88 "Hg10 mi
3:55 PM83 °FBroken clouds.3 mph14%29.89 "Hg10 mi
2:55 PM81 °FBroken clouds.3 mph14%29.90 "Hg10 mi
1:55 PM81 °FPartly sunny.5 mph15%29.92 "Hg10 mi
12:55 PM80 °FScattered clouds.6 mph17%29.93 "Hg10 mi
11:55 AM77 °FScattered clouds.6 mph19%29.95 "Hg10 mi
10:55 AM73 °FPartly sunny.3 mph27%29.97 "Hg10 mi
9:55 AM69 °FPartly sunny.No wind29%29.98 "Hg10 mi
8:55 AM63 °FPartly sunny.No wind35%30.00 "Hg10 mi
7:55 AM58 °FPartly sunny.3 mph44%30.01 "Hg10 mi
6:55 AM56 °FPassing clouds.3 mph46%29.99 "Hg10 mi
5:55 AM53 °FPassing clouds.5 mph51%29.98 "Hg10 mi
4:55 AM54 °FClear.No wind49%29.97 "Hg10 mi
3:55 AM54 °FClear.3 mph51%29.96 "Hg10 mi
2:55 AM57 °FClear.No wind42%29.96 "Hg10 mi
Weather by CustomWeather, © 2015

See weather overviewHow to use our weather pages